EA8CHC Sevilla ES current weather conditions

sailwx.info

Wind from 235 at 7 knots gusting 14

Air temperature 23.3° C
Dewpoint 8.6° C

Last reported at 2015-Apr-18 14:47 UTC.
Time now 2015-Apr-18 15:14 UTC

Location: N 37°26' W 006°03'.
View on Google Maps.

See reports from other nearby stations

  
Tides and Currents Weather Stations Pressure Air Temp Water Temp Dewpoint Dewpoint Depression Visibility Wind Speed Wind Dir Waves Ship Positions
date/time (UTC)wind fromknots sea level pressurealtimeterstation pressurevisibilityair tempwater tempwave heightnotes
2015-Apr-18 14:47 235 7 gusting 14 23.3
2015-Apr-18 14:42 263 6 gusting 14 23.3
2015-Apr-18 14:37 281 6 gusting 13 23.3
2015-Apr-18 14:32 229 6 gusting 13 23.3
2015-Apr-18 14:27 270 5 gusting 11 23.3
2015-Apr-18 14:22 237 5 gusting 10 23.3
2015-Apr-18 14:17 231 6 gusting 12 22.8
2015-Apr-18 14:12 219 6 gusting 12 22.8
2015-Apr-18 14:07 214 6 gusting 12 22.8
2015-Apr-18 14:02 266 4 gusting 10 22.8
2015-Apr-18 13:57 226 4 gusting 10 22.8
2015-Apr-18 13:52 219 5 gusting 8 22.8
2015-Apr-18 13:47 215 4 gusting 8 22.8
2015-Apr-18 13:42 215 3 gusting 7 22.8
2015-Apr-18 13:37 280 3 gusting 8 22.2
2015-Apr-18 13:32 171 4 gusting 12 22.2
2015-Apr-18 13:27 225 5 gusting 12 22.2
2015-Apr-18 13:22 247 6 gusting 11 21.7
2015-Apr-18 13:17 275 5 gusting 12 21.7
2015-Apr-18 13:12 277 6 gusting 12 21.7
2015-Apr-18 13:07 282 5 gusting 9 21.7
2015-Apr-18 13:02 268 4 gusting 10 21.7
2015-Apr-18 12:57 215 4 gusting 12 21.7
2015-Apr-18 12:52 254 5 gusting 12 21.7
2015-Apr-18 12:47 271 4 gusting 12 21.7
2015-Apr-18 12:42 302 6 gusting 12 21.1
2015-Apr-18 12:37 267 6 gusting 11 21.1
2015-Apr-18 12:32 272 5 gusting 10 21.1
2015-Apr-18 12:27 236 4 gusting 10 21.1
2015-Apr-18 12:22 288 4 gusting 9 21.1
2015-Apr-18 12:17 259 4 gusting 9 21.1
2015-Apr-18 12:12 286 5 gusting 11 21.1
2015-Apr-18 12:07 217 5 gusting 11 20.6
2015-Apr-18 12:02 227 5 gusting 11 20.6
2015-Apr-18 11:57 263 4 gusting 11 21.1
2015-Apr-18 11:52 254 4 gusting 11 20.6
2015-Apr-18 11:47 200 5 gusting 11 20.6
2015-Apr-18 11:42 269 4 gusting 8 20.6
2015-Apr-18 11:37 324 2 gusting 6 20.6
2015-Apr-18 11:32 302 1 gusting 5 20.0
2015-Apr-18 11:27 214 1 gusting 7 20.0
2015-Apr-18 11:22 298 2 gusting 7 20.0
2015-Apr-18 11:17 273 3 gusting 7 19.4
2015-Apr-18 11:12 281 3 gusting 7 20.0
2015-Apr-18 11:07 261 3 gusting 7 19.4
2015-Apr-18 11:02 308 4 gusting 7 19.4
2015-Apr-18 10:57 331 2 gusting 7 20.0
2015-Apr-18 10:52 348 1 gusting 5 19.4
2015-Apr-18 10:47 302 1 gusting 5 19.4
2015-Apr-18 10:42 265 1 gusting 5 19.4
2015-Apr-18 10:37 317 1 gusting 6 19.4
2015-Apr-18 10:32 269 2 gusting 6 18.9
2015-Apr-18 10:27 311 2 gusting 6 18.9
2015-Apr-18 10:22 341 2 gusting 6 18.9
2015-Apr-18 10:17 325 2 gusting 6 18.9
2015-Apr-18 10:12 322 1 gusting 5 18.9
2015-Apr-18 10:07 283 0 gusting 5 18.9
2015-Apr-18 10:02 267 0 gusting 5 18.3
2015-Apr-18 09:57 268 1 gusting 4 18.3
2015-Apr-18 09:52 255 0 gusting 4 18.3
2015-Apr-18 09:47 241 0 gusting 6 18.3
2015-Apr-18 09:42 119 1 gusting 6 17.8
2015-Apr-18 09:37 124 2 gusting 6 17.8
2015-Apr-18 09:32 140 3 gusting 5 17.2
2015-Apr-18 09:27 124 2 gusting 6 17.2
2015-Apr-18 09:22 140 2 gusting 6 16.7
2015-Apr-18 09:17 146 3 gusting 6 16.7
2015-Apr-18 09:12 144 3 gusting 6 16.7
2015-Apr-18 09:07 129 3 gusting 6 16.7
2015-Apr-18 09:02 107 1 gusting 5 16.7
2015-Apr-18 08:57 086 0 gusting 4 16.7
2015-Apr-18 08:52 086 0 gusting 4 16.7
2015-Apr-18 08:47 086 0 gusting 3 16.7
2015-Apr-18 08:42 084 0 gusting 2 16.7
2015-Apr-18 08:37 321 0 gusting 3 16.1
2015-Apr-18 08:32 321 0 gusting 4 16.1
2015-Apr-18 08:27 321 1 gusting 5 15.6
2015-Apr-18 08:22 341 1 gusting 5 15.6
2015-Apr-18 08:17 336 1 gusting 5 15.6
2015-Apr-18 08:12 331 1 gusting 6 15.6
2015-Apr-18 08:07 322 1 gusting 6 15.0
2015-Apr-18 08:02 326 1 gusting 6 15.0
2015-Apr-18 07:57 327 2 gusting 6 15.0
2015-Apr-18 07:52 320 3 gusting 6 14.4
2015-Apr-18 07:47 329 2 gusting 5 14.4
2015-Apr-18 07:42 304 0 gusting 4 14.4
2015-Apr-18 07:37 302 1 gusting 4 14.4
2015-Apr-18 07:32 302 1 gusting 4 13.9
2015-Apr-18 07:27 309 1 gusting 3 13.9
2015-Apr-18 07:22 305 0 gusting 3 13.9
2015-Apr-18 07:17 306 13.9
2015-Apr-18 07:12 317 0 gusting 4 13.3
2015-Apr-18 07:07 317 1 gusting 5 13.3
2015-Apr-18 07:02 312 2 gusting 6 12.8
2015-Apr-18 06:57 308 3 gusting 6 12.8
2015-Apr-18 06:52 301 3 gusting 6 12.2
2015-Apr-18 06:47 296 3 gusting 6 12.2
2015-Apr-18 06:42 298 3 gusting 5 12.2
2015-Apr-18 06:37 310 2 gusting 5 12.2
2015-Apr-18 06:32 311 2 gusting 4 12.2
2015-Apr-18 06:27 310 1 gusting 3 12.2
2015-Apr-18 06:22 310 1 gusting 5 12.2
2015-Apr-18 06:17 310 2 gusting 5 12.2
2015-Apr-18 06:12 310 2 gusting 5 12.2
2015-Apr-18 06:07 310 2 gusting 4 12.2
2015-Apr-18 06:02 310 3 gusting 5 11.7
2015-Apr-18 05:57 310 3 gusting 5 11.7
2015-Apr-18 05:52 311 3 gusting 5 11.7
2015-Apr-18 05:47 309 3 gusting 5 12.2
2015-Apr-18 05:42 311 3 gusting 5 12.2
2015-Apr-18 05:37 302 3 gusting 5 12.2
2015-Apr-18 05:32 301 2 gusting 3 12.2
2015-Apr-18 05:27 297 2 gusting 3 12.2
2015-Apr-18 05:22 310 1 gusting 5 12.8
2015-Apr-18 05:17 310 1 gusting 5 12.8
2015-Apr-18 05:12 310 2 gusting 5 12.8
2015-Apr-18 05:07 310 2 gusting 5 12.8
2015-Apr-18 05:02 312 2 gusting 4 13.3
2015-Apr-18 04:57 300 2 gusting 4 13.3
2015-Apr-18 04:52 302 2 gusting 6 13.3
2015-Apr-18 04:47 302 2 gusting 6 13.3
2015-Apr-18 04:42 302 2 gusting 6 13.3
2015-Apr-18 04:37 302 3 gusting 6 13.9
2015-Apr-18 04:32 302 3 gusting 5 13.9
2015-Apr-18 04:27 284 3 gusting 5 13.9
2015-Apr-18 04:22 294 3 gusting 6 13.9
2015-Apr-18 04:17 287 3 gusting 6 13.9
2015-Apr-18 04:12 288 3 gusting 6 13.9
2015-Apr-18 04:07 283 3 gusting 6 13.9
2015-Apr-18 04:02 285 3 gusting 6 14.4
2015-Apr-18 03:57 292 3 gusting 6 14.4
2015-Apr-18 03:52 292 3 gusting 6 14.4
2015-Apr-18 03:47 295 3 gusting 6 14.4
2015-Apr-18 03:42 281 3 gusting 6 14.4
2015-Apr-18 03:37 279 3 gusting 6 14.4
2015-Apr-18 03:32 281 3 gusting 6 14.4
2015-Apr-18 03:27 281 4 gusting 6 14.4
2015-Apr-18 03:22 292 5 gusting 6 15.0
2015-Apr-18 03:17 283 4 gusting 6 15.0
2015-Apr-18 03:12 276 4 gusting 6 14.4
2015-Apr-18 03:07 275 3 gusting 6 14.4
2015-Apr-18 03:02 273 3 gusting 5 14.4
2015-Apr-18 02:57 297 2 gusting 5 14.4
2015-Apr-18 02:52 273 3 gusting 5 14.4
2015-Apr-18 02:47 267 3 gusting 5 14.4
2015-Apr-18 02:42 267 1 gusting 5 15.0
2015-Apr-18 02:37 271 0 gusting 6 15.0
2015-Apr-18 02:32 271 1 gusting 6 15.0
2015-Apr-18 02:27 271 2 gusting 6 15.0
2015-Apr-18 02:22 269 3 gusting 6 15.0
2015-Apr-18 02:17 284 3 gusting 6 15.6
2015-Apr-18 02:12 281 4 gusting 6 15.6
2015-Apr-18 02:07 275 4 gusting 6 15.6
2015-Apr-18 02:02 279 4 gusting 6 15.6
2015-Apr-18 01:57 263 4 gusting 6 15.6
2015-Apr-18 01:52 269 4 gusting 6 15.6
2015-Apr-18 01:47 278 4 gusting 6 15.6
2015-Apr-18 01:42 276 4 gusting 6 15.6
2015-Apr-18 01:37 263 4 gusting 6 15.6
2015-Apr-18 01:32 263 4 gusting 5 16.1
2015-Apr-18 01:27 285 3 gusting 5 16.1
2015-Apr-18 01:22 273 2 gusting 5 16.1
2015-Apr-18 01:17 279 3 gusting 5 16.1
2015-Apr-18 01:12 283 3 gusting 5 16.1
2015-Apr-18 01:07 278 3 gusting 5 16.1
2015-Apr-18 01:02 280 3 gusting 6 16.7
2015-Apr-18 00:57 284 3 gusting 6 16.7
2015-Apr-18 00:52 284 3 gusting 6 16.7
2015-Apr-18 00:47 279 3 gusting 6 16.7
2015-Apr-18 00:42 281 3 gusting 6 16.7
2015-Apr-18 00:37 289 3 gusting 6 16.7
2015-Apr-18 00:32 278 3 gusting 7 16.1
2015-Apr-18 00:27 279 4 gusting 7 16.7
2015-Apr-18 00:22 284 5 gusting 9 16.7
2015-Apr-18 00:17 271 6 gusting 9 16.7
2015-Apr-18 00:12 276 6 gusting 9 16.7
2015-Apr-18 00:07 264 6 gusting 9 16.7
2015-Apr-18 00:02 274 6 gusting 8 16.7
2015-Apr-17 23:57 257 6 gusting 8 16.7
2015-Apr-17 23:52 285 5 gusting 8 16.7
2015-Apr-17 23:47 288 5 gusting 8 16.7
2015-Apr-17 23:42 279 5 gusting 7 16.7
2015-Apr-17 23:37 273 6 gusting 7 16.7
2015-Apr-17 23:32 263 6 gusting 7 16.7
2015-Apr-17 23:27 274 5 gusting 6 16.7
2015-Apr-17 23:22 278 4 gusting 6 17.2
2015-Apr-17 23:17 277 3 gusting 5 16.7
2015-Apr-17 23:12 295 3 gusting 6 17.2
2015-Apr-17 23:07 296 3 gusting 6 17.2
2015-Apr-17 23:02 294 4 gusting 6 17.2
2015-Apr-17 22:57 279 5 gusting 7 17.2
2015-Apr-17 22:52 279 5 gusting 7 17.2
2015-Apr-17 22:47 284 5 gusting 7 17.2
2015-Apr-17 22:42 263 5 gusting 6 17.8
2015-Apr-17 22:37 277 5 gusting 7 17.8
2015-Apr-17 22:32 275 5 gusting 7 17.8
2015-Apr-17 22:27 278 5 gusting 9 17.8
2015-Apr-17 22:22 268 5 gusting 9 17.8
2015-Apr-17 22:17 273 6 gusting 9 17.8
2015-Apr-17 22:12 265 6 gusting 9 17.8
2015-Apr-17 22:07 287 6 gusting 9 17.8
2015-Apr-17 22:02 267 6 gusting 9 17.8
2015-Apr-17 21:57 246 6 gusting 9 17.8
2015-Apr-17 21:52 273 6 gusting 9 18.3
2015-Apr-17 21:47 250 6 gusting 11 18.3
2015-Apr-17 21:42 274 6 gusting 11 18.3
2015-Apr-17 21:37 265 6 gusting 11 18.3
2015-Apr-17 21:32 267 6 gusting 9 18.3
2015-Apr-17 21:27 279 6 gusting 9 18.3
2015-Apr-17 21:22 271 6 gusting 9 18.3
2015-Apr-17 21:17 269 6 gusting 9 18.3
2015-Apr-17 21:12 288 6 gusting 9 18.3
2015-Apr-17 21:07 267 6 gusting 9 18.3
2015-Apr-17 21:02 269 6 gusting 9 18.9
2015-Apr-17 20:57 262 6 gusting 9 18.9
2015-Apr-17 20:52 257 6 gusting 9 18.9
2015-Apr-17 20:47 250 5 gusting 10 18.9
2015-Apr-17 20:42 266 6 gusting 10 18.9
2015-Apr-17 20:37 255 6 gusting 9 18.9
2015-Apr-17 20:32 265 6 gusting 9 18.9
2015-Apr-17 20:27 270 6 gusting 9 18.9
2015-Apr-17 20:22 263 6 gusting 9 19.4
2015-Apr-17 20:17 266 6 gusting 9 19.4
2015-Apr-17 20:12 270 6 gusting 9 19.4
2015-Apr-17 20:07 280 6 gusting 9 19.4
2015-Apr-17 20:02 252 6 gusting 9 19.4
2015-Apr-17 19:57 273 5 gusting 7 20.0
2015-Apr-17 19:52 263 5 gusting 7 20.0
2015-Apr-17 19:47 253 5 gusting 7 20.6
2015-Apr-17 19:42 256 4 gusting 7 20.6
2015-Apr-17 19:37 278 3 gusting 6 20.6
2015-Apr-17 19:32 279 3 gusting 8 20.6
2015-Apr-17 19:27 248 3 gusting 8 20.6
2015-Apr-17 19:22 254 3 gusting 8 21.1
2015-Apr-17 19:17 266 3 gusting 6 21.1
2015-Apr-17 19:12 252 3 gusting 6 21.1
2015-Apr-17 19:07 250 2 gusting 5 21.1
2015-Apr-17 19:02 257 2 gusting 5 21.1
2015-Apr-17 18:57 257 2 gusting 5 21.7
2015-Apr-17 18:52 268 2 gusting 5 21.7
2015-Apr-17 18:47 251 2 gusting 6 21.7
2015-Apr-17 18:42 269 2 gusting 7 21.7
2015-Apr-17 18:37 270 4 gusting 7 21.7
2015-Apr-17 18:32 275 5 gusting 8 22.2
2015-Apr-17 18:27 269 5 gusting 8 22.8
2015-Apr-17 18:22 270 4 gusting 6 23.3
2015-Apr-17 18:17 275 1 gusting 4 23.9
2015-Apr-17 18:12 259 0 gusting 3 23.9
2015-Apr-17 18:07 259 1 gusting 4 23.9
2015-Apr-17 18:02 240 1 gusting 4 23.9
2015-Apr-17 17:57 240 1 gusting 4 23.9
2015-Apr-17 17:52 267 1 gusting 4 23.9
2015-Apr-17 17:47 265 1 gusting 4 23.9
2015-Apr-17 17:42 232 0 gusting 5 23.9
2015-Apr-17 17:37 232 1 gusting 6 23.9
2015-Apr-17 17:32 232 2 gusting 6 23.9
2015-Apr-17 17:27 232 3 gusting 6 23.9
2015-Apr-17 17:22 227 1 gusting 6 24.4
2015-Apr-17 17:17 271 1 gusting 4 24.4
2015-Apr-17 17:12 272 1 gusting 4 24.4
2015-Apr-17 17:07 315 0 gusting 2 24.4
2015-Apr-17 17:02 257 0 gusting 5 24.4
2015-Apr-17 16:57 257 0 gusting 5 24.4
2015-Apr-17 16:52 257 1 gusting 5 24.4
2015-Apr-17 16:47 264 1 gusting 5 24.4
2015-Apr-17 16:42 252 1 gusting 5 24.4
2015-Apr-17 16:37 260 1 gusting 5 24.4
2015-Apr-17 16:32 250 1 gusting 5 24.4
2015-Apr-17 16:27 259 0 gusting 5 24.4
2015-Apr-17 16:22 245 1 gusting 5 24.4
2015-Apr-17 16:17 244 0 gusting 6 23.9
2015-Apr-17 16:12 279 1 gusting 6 23.9
2015-Apr-17 16:07 283 2 gusting 6 23.9
2015-Apr-17 16:02 284 2 gusting 5 23.9
2015-Apr-17 15:57 263 1 gusting 5 23.9
2015-Apr-17 15:52 252 1 gusting 5 23.9
2015-Apr-17 15:47 255 1 gusting 5 23.3
2015-Apr-17 15:42 261 2 gusting 6 23.3
2015-Apr-17 15:37 267 2 gusting 6 23.3
2015-Apr-17 15:32 263 2 gusting 5 23.3
2015-Apr-17 15:27 254 0 gusting 5 23.9
2015-Apr-17 15:22 218 0 gusting 6 23.9
2015-Apr-17 15:17 191 2 gusting 6 23.9
2015-Apr-17 15:12 211 2 gusting 6 23.9
2015-Apr-17 15:07 220 0 gusting 6 23.9
2015-Apr-17 15:02 186 0 gusting 6 23.3
2015-Apr-17 14:57 186 1 gusting 6 23.3
2015-Apr-17 14:52 238 2 gusting 6 23.3
2015-Apr-17 14:47 263 1 gusting 6 23.3
2015-Apr-17 14:42 216 1 gusting 6 23.3
2015-Apr-17 14:37 328 3 gusting 6 23.3
2015-Apr-17 14:32 287 2 gusting 6 23.9
2015-Apr-17 14:27 226 1 gusting 6 23.9
2015-Apr-17 14:22 237 3 gusting 6 23.9
2015-Apr-17 14:17 222 2 gusting 6 23.9
2015-Apr-17 14:12 237 1 gusting 6 23.9
2015-Apr-17 14:07 222 1 gusting 5 23.3
2015-Apr-17 14:02 250 0 gusting 5 23.3
2015-Apr-17 13:57 180 0 gusting 4 23.3
2015-Apr-17 13:52 206 1 gusting 4 23.3
2015-Apr-17 13:47 300 1 gusting 4 23.3
2015-Apr-17 13:42 295 1 gusting 4 23.3
2015-Apr-17 13:37 350 1 gusting 4 23.3
2015-Apr-17 13:32 311 0 gusting 4 23.3
2015-Apr-17 13:27 259 0 gusting 4 23.3
2015-Apr-17 13:22 259 1 gusting 4 22.8
2015-Apr-17 13:17 266 1 gusting 4 22.8
2015-Apr-17 13:12 315 1 gusting 5 22.8
2015-Apr-17 13:07 014 1 gusting 6 22.8
2015-Apr-17 13:02 299 0 gusting 6 22.8
2015-Apr-17 12:57 049 0 gusting 6 22.8
2015-Apr-17 12:52 045 0 gusting 6 22.2
2015-Apr-17 12:47 046 2 gusting 6 22.2
2015-Apr-17 12:42 014 2 gusting 6 22.2
2015-Apr-17 12:37 338 2 gusting 6 21.7
2015-Apr-17 12:32 259 1 gusting 6 21.7
2015-Apr-17 12:27 306 1 gusting 5 21.7
2015-Apr-17 12:22 300 1 gusting 6 21.7
2015-Apr-17 12:17 038 2 gusting 6 21.7
2015-Apr-17 12:12 033 0 gusting 4 21.7
2015-Apr-17 12:07 349 0 gusting 5 21.1
2015-Apr-17 12:02 060 1 gusting 5 20.6
2015-Apr-17 11:57 072 2 gusting 6 20.6
2015-Apr-17 11:52 081 2 gusting 6 20.6
2015-Apr-17 11:47 086 3 gusting 6 20.6
2015-Apr-17 11:42 066 1 gusting 6 20.6
2015-Apr-17 11:37 076 2 gusting 7 20.0
2015-Apr-17 11:32 076 4 gusting 7 20.0
2015-Apr-17 11:27 116 3 gusting 7 19.4
2015-Apr-17 11:22 097 2 gusting 6 19.4
2015-Apr-17 11:17 098 3 gusting 6 19.4
2015-Apr-17 11:12 108 4 gusting 7 19.4
2015-Apr-17 11:07 100 3 gusting 7 19.4
2015-Apr-17 11:02 066 3 gusting 7 18.9
2015-Apr-17 10:57 109 2 gusting 6 18.9
2015-Apr-17 10:52 111 3 gusting 6 18.9
2015-Apr-17 10:47 109 4 gusting 6 18.9
2015-Apr-17 10:42 061 3 gusting 6 18.9
2015-Apr-17 10:37 082 3 gusting 6 18.3
2015-Apr-17 10:32 041 4 gusting 6 18.3
2015-Apr-17 10:27 078 4 gusting 6 17.8
2015-Apr-17 10:22 088 3 gusting 6 17.8
2015-Apr-17 10:17 044 3 gusting 6 17.8
2015-Apr-17 10:12 107 4 gusting 6 17.2
2015-Apr-17 10:07 106 4 gusting 6 17.2
2015-Apr-17 10:02 120 4 gusting 6 17.2
2015-Apr-17 09:57 109 3 gusting 6 17.2
2015-Apr-17 09:52 083 2 gusting 6 17.2
2015-Apr-17 09:47 070 3 gusting 6 16.7
2015-Apr-17 09:42 074 2 gusting 6 16.7
2015-Apr-17 09:37 068 2 gusting 6 16.7
2015-Apr-17 09:32 040 2 gusting 5 16.1
2015-Apr-17 09:27 011 1 gusting 4 16.1
2015-Apr-17 09:22 055 1 gusting 4 15.6
2015-Apr-17 09:17 028 1 gusting 4 15.6
2015-Apr-17 09:12 076 2 gusting 5 15.0
2015-Apr-17 09:07 078 2 gusting 5 15.0
2015-Apr-17 09:02 055 3 gusting 5 15.0
2015-Apr-17 08:57 069 3 gusting 5 15.0
2015-Apr-17 08:52 064 3 gusting 6 14.4
2015-Apr-17 08:47 101 3 gusting 6 14.4
2015-Apr-17 08:42 070 2 gusting 6 14.4
2015-Apr-17 08:37 053 3 gusting 6 14.4
2015-Apr-17 08:32 057 3 gusting 6 13.9
2015-Apr-17 08:27 043 2 gusting 4 13.9
2015-Apr-17 08:22 059 2 gusting 5 13.9
2015-Apr-17 08:17 107 2 gusting 5 13.9
2015-Apr-17 08:12 077 2 gusting 6 13.3
2015-Apr-17 08:07 065 2 gusting 6 13.3
2015-Apr-17 08:02 065 2 gusting 6 13.3
2015-Apr-17 07:57 090 2 gusting 5 13.3
2015-Apr-17 07:52 090 2 gusting 5 12.8
2015-Apr-17 07:47 090 2 gusting 5 12.8
2015-Apr-17 07:42 090 1 gusting 5 12.8
2015-Apr-17 07:37 090 1 gusting 4 12.8
2015-Apr-17 07:32 068 1 gusting 3 12.8
2015-Apr-17 07:27 085 1 gusting 3 12.8
2015-Apr-17 07:22 085 0 gusting 3 12.8
2015-Apr-17 07:17 135 12.8
2015-Apr-17 07:12 135 12.8
2015-Apr-17 07:07 135 12.8
2015-Apr-17 07:02 135 12.8
2015-Apr-17 06:57 135 12.8
2015-Apr-17 06:52 135 12.8
2015-Apr-17 06:47 135 0 gusting 3 12.8
2015-Apr-17 06:42 135 0 gusting 1 12.8
2015-Apr-17 06:37 135 0 gusting 3 12.8
2015-Apr-17 06:32 135 0 gusting 5 12.8
2015-Apr-17 06:27 135 1 gusting 5 12.8
2015-Apr-17 06:22 136 2 gusting 5 12.2
2015-Apr-17 06:17 133 2 gusting 5 12.8
2015-Apr-17 06:12 132 2 gusting 4 12.8
2015-Apr-17 06:07 318 1 gusting 3 12.8
2015-Apr-17 06:02 318 0 gusting 3 12.8
2015-Apr-17 05:57 318 12.8
2015-Apr-17 05:52 318 12.8
2015-Apr-17 05:47 318 12.8
2015-Apr-17 05:42 318 12.8
2015-Apr-17 05:37 318 12.8
2015-Apr-17 05:32 318 12.8
2015-Apr-17 05:27 318 12.2
2015-Apr-17 05:22 318 12.2
2015-Apr-17 05:17 318 12.2
2015-Apr-17 05:12 318 12.2
2015-Apr-17 05:07 318 12.2
2015-Apr-17 05:02 318 12.2
2015-Apr-17 04:57 318 11.7
2015-Apr-17 04:52 318 1 gusting 3 11.7
2015-Apr-17 04:47 318 1 gusting 3 11.7
2015-Apr-17 04:42 318 1 gusting 3 11.7
2015-Apr-17 04:37 318 0 gusting 2 12.2
2015-Apr-17 04:32 318 12.2
2015-Apr-17 04:27 318 0 gusting 4 12.2
2015-Apr-17 04:22 318 1 gusting 4 12.2
2015-Apr-17 04:17 318 1 gusting 4 12.2
2015-Apr-17 04:12 318 2 gusting 4 12.2
2015-Apr-17 04:07 312 2 gusting 4 12.2
2015-Apr-17 04:02 315 2 gusting 5 12.2
2015-Apr-17 03:57 309 2 gusting 5 12.2
2015-Apr-17 03:52 319 2 gusting 5 12.2
2015-Apr-17 03:47 305 2 gusting 3 12.2
2015-Apr-17 03:42 301 1 gusting 3 12.2
2015-Apr-17 03:37 298 1 gusting 3 12.2
2015-Apr-17 03:32 298 1 gusting 3 12.2
2015-Apr-17 03:27 340 1 gusting 2 12.8
2015-Apr-17 03:22 340 0 gusting 2 12.8
2015-Apr-17 03:17 340 0 gusting 2 12.8
2015-Apr-17 03:12 340 12.8
2015-Apr-17 03:07 340 12.8
2015-Apr-17 03:02 340 12.8
2015-Apr-17 02:57 340 12.8
2015-Apr-17 02:52 340 12.8
2015-Apr-17 02:47 340 13.3
2015-Apr-17 02:42 340 13.3
2015-Apr-17 02:37 340 13.3
2015-Apr-17 02:32 340 13.3
2015-Apr-17 02:27 340 13.3
2015-Apr-17 02:22 340 13.3
2015-Apr-17 02:17 340 13.3
2015-Apr-17 02:12 340 13.3
2015-Apr-17 02:07 340 13.3
2015-Apr-17 02:02 340 13.3
2015-Apr-17 01:57 340 13.3
2015-Apr-17 01:52 340 13.3
2015-Apr-17 01:47 340 13.3
2015-Apr-17 01:42 340 13.3
2015-Apr-17 01:37 340 13.3
2015-Apr-17 01:32 340 0 gusting 2 13.3
2015-Apr-17 01:27 340 0 gusting 2 13.9
2015-Apr-17 01:22 340 0 gusting 2 13.9
2015-Apr-17 01:17 340 0 gusting 2 13.9
2015-Apr-17 01:12 236 14.4
2015-Apr-17 01:07 236 14.4
2015-Apr-17 01:02 236 0 gusting 5 14.4
2015-Apr-17 00:57 236 1 gusting 5 14.4
2015-Apr-17 00:52 236 1 gusting 5 14.4
2015-Apr-17 00:47 173 0 gusting 5 14.4
2015-Apr-17 00:42 173 1 gusting 5 14.4
2015-Apr-17 00:37 173 2 gusting 5 14.4
2015-Apr-17 00:32 173 2 gusting 6 14.4
2015-Apr-17 00:27 167 3 gusting 6 14.4
2015-Apr-17 00:22 175 3 gusting 6 14.4
2015-Apr-17 00:17 163 3 gusting 6 14.4
2015-Apr-17 00:12 163 2 gusting 5 14.4
2015-Apr-17 00:07 175 3 gusting 5 14.4
2015-Apr-17 00:02 172 3 gusting 5 14.4
2015-Apr-16 23:57 167 2 gusting 5 14.4
2015-Apr-16 23:52 173 1 gusting 4 15.0
2015-Apr-16 23:47 173 1 gusting 4 15.0
2015-Apr-16 23:42 162 1 gusting 6 15.0
2015-Apr-16 23:37 150 1 gusting 6 15.6
2015-Apr-16 23:32 150 2 gusting 6 15.6
2015-Apr-16 23:27 131 2 gusting 5 15.6
2015-Apr-16 23:22 155 1 gusting 5 15.6
2015-Apr-16 23:17 130 0 gusting 4 16.1
2015-Apr-16 23:12 130 16.1
2015-Apr-16 23:07 130 16.1
2015-Apr-16 23:02 130 0 gusting 4 16.1
2015-Apr-16 22:57 130 0 gusting 4 16.1
2015-Apr-16 22:52 130 0 gusting 6 16.1
2015-Apr-16 22:47 290 1 gusting 6 16.1
2015-Apr-16 22:42 253 2 gusting 5 16.1
2015-Apr-16 22:37 286 2 gusting 5 16.1
2015-Apr-16 22:32 269 1 gusting 5 16.1
2015-Apr-16 22:27 283 1 gusting 5 16.1
2015-Apr-16 22:22 254 0 gusting 4 16.1
2015-Apr-16 22:17 271 0 gusting 2 16.1
2015-Apr-16 22:12 271 0 gusting 4 16.1
2015-Apr-16 22:07 244 0 gusting 6 16.7
2015-Apr-16 22:02 244 1 gusting 6 16.7
2015-Apr-16 21:57 277 2 gusting 7 16.7
2015-Apr-16 21:52 266 3 gusting 7 16.7
2015-Apr-16 21:47 235 4 gusting 7 16.7
2015-Apr-16 21:42 256 4 gusting 7 16.7
2015-Apr-16 21:37 272 3 gusting 6 16.7
2015-Apr-16 21:32 235 2 gusting 6 16.7
2015-Apr-16 21:27 243 2 gusting 6 16.7
2015-Apr-16 21:22 258 1 gusting 6 16.7
2015-Apr-16 21:17 223 2 gusting 6 16.7
2015-Apr-16 21:12 192 2 gusting 8 16.7
2015-Apr-16 21:07 238 3 gusting 10 16.7
2015-Apr-16 21:02 242 4 gusting 10 16.7
2015-Apr-16 20:57 280 5 gusting 10 16.7
2015-Apr-16 20:52 269 5 gusting 10 16.7
2015-Apr-16 20:47 239 5 gusting 7 16.7
2015-Apr-16 20:42 292 4 gusting 8 16.7
2015-Apr-16 20:37 269 5 gusting 8 16.7
2015-Apr-16 20:32 222 5 gusting 8 16.7
2015-Apr-16 20:27 284 4 gusting 8 16.7
2015-Apr-16 20:22 277 4 gusting 9 16.7
2015-Apr-16 20:17 248 4 gusting 9 17.2
2015-Apr-16 20:12 213 4 gusting 9 17.2
2015-Apr-16 20:07 238 4 gusting 10 17.2
2015-Apr-16 20:02 274 4 gusting 10 17.2
2015-Apr-16 19:57 236 4 gusting 10 17.2
2015-Apr-16 19:52 245 4 gusting 10 17.2
2015-Apr-16 19:47 279 4 gusting 10 17.8
2015-Apr-16 19:42 280 4 gusting 10 17.8
2015-Apr-16 19:37 248 5 gusting 9 17.8
2015-Apr-16 19:32 242 5 gusting 9 17.8
2015-Apr-16 19:27 269 5 gusting 8 17.8
2015-Apr-16 19:22 260 4 gusting 10 17.8
2015-Apr-16 19:17 233 4 gusting 10 18.3
2015-Apr-16 19:12 214 4 gusting 10 18.3
2015-Apr-16 19:07 233 5 gusting 9 18.3
2015-Apr-16 19:02 206 5 gusting 9 18.3
2015-Apr-16 18:57 276 5 gusting 8 18.3
2015-Apr-16 18:52 238 5 gusting 11 18.9
2015-Apr-16 18:47 257 5 gusting 11 18.9
2015-Apr-16 18:42 251 5 gusting 11 18.9
2015-Apr-16 18:37 267 5 gusting 13 18.9
2015-Apr-16 18:32 234 6 gusting 13 19.4
2015-Apr-16 18:27 214 6 gusting 13 19.4
2015-Apr-16 18:22 221 6 gusting 13 19.4
2015-Apr-16 18:17 238 7 gusting 13 19.4
2015-Apr-16 18:12 221 6 gusting 10 19.4
2015-Apr-16 18:07 209 6 gusting 10 20.0
2015-Apr-16 18:02 230 5 gusting 10 20.0
2015-Apr-16 17:57 223 5 gusting 12 20.0
2015-Apr-16 17:52 227 6 gusting 12 20.6
2015-Apr-16 17:47 230 6 gusting 12 20.6
2015-Apr-16 17:42 215 6 gusting 13 20.6
2015-Apr-16 17:37 218 6 gusting 13 20.6
2015-Apr-16 17:32 225 6 gusting 13 20.6
2015-Apr-16 17:27 235 6 gusting 13 20.6
2015-Apr-16 17:22 214 6 gusting 12 21.1
2015-Apr-16 17:17 240 6 gusting 12 21.1
2015-Apr-16 17:12 242 6 gusting 12 21.1
2015-Apr-16 17:07 235 6 gusting 12 21.1
2015-Apr-16 17:02 226 6 gusting 12 21.1
2015-Apr-16 16:57 234 6 gusting 12 21.1
2015-Apr-16 16:52 203 6 gusting 12 21.1
2015-Apr-16 16:47 223 6 gusting 12 21.1
2015-Apr-16 16:42 209 6 gusting 13 21.1
2015-Apr-16 16:37 223 6 gusting 13 21.7
2015-Apr-16 16:32 231 6 gusting 13 21.7
2015-Apr-16 16:27 227 6 gusting 13 21.7
2015-Apr-16 16:22 258 6 gusting 12 21.1
2015-Apr-16 16:17 242 6 gusting 14 21.1
2015-Apr-16 16:12 222 7 gusting 14 21.1
2015-Apr-16 16:07 227 6 gusting 14 21.1
2015-Apr-16 16:02 211 6 gusting 14 21.7
2015-Apr-16 15:57 265 6 gusting 11 21.7
2015-Apr-16 15:52 180 5 gusting 10 21.7
2015-Apr-16 15:47 222 6 gusting 10 21.7
2015-Apr-16 15:42 229 5 gusting 10 21.7
2015-Apr-16 15:37 254 5 gusting 10 21.7
2015-Apr-16 15:32 227 5 gusting 12 21.7
2015-Apr-16 15:27 201 6 gusting 12 21.7
2015-Apr-16 15:22 227 6 gusting 12 21.7
2015-Apr-16 15:17 212 6 gusting 12 22.2
2015-Apr-16 15:12 249 5 gusting 12 22.2
2015-Apr-16 15:07 269 5 gusting 12 21.7
2015-Apr-16 15:02 225 5 gusting 12 21.7